| time (UTC) | temp C | wind direction | speed KPH | gust KPH | rain 1hr cm | rain 24hr cm | rain mn cm | humidity % | barometer mb |
| 20260502233037 | 32 | 312 | 14.5 | 24.1 | 0.00 | 0.00 | 0.00 | 66 | 1007.7 |
| 20260502231525 | 32 | 300 | 16.1 | 25.7 | 0.00 | 0.00 | 0.00 | 66 | 1007.8 |
| 20260502230032 | 32 | 360 | 17.7 | 29.0 | 0.00 | 0.00 | 0.00 | 64 | 1007.7 |
| 20260502224524 | 32 | 315 | 19.3 | 30.6 | 0.00 | 0.00 | 0.00 | 61 | 1007.2 |
| 20260502223036 | 33 | 333 | 17.7 | 25.7 | 0.00 | 0.00 | 0.00 | 60 | 1007.3 |
| 20260502221522 | 33 | 339 | 22.5 | 33.8 | 0.00 | 0.00 | 0.00 | 59 | 1007.5 |
| 20260502220024 | 33 | 329 | 19.3 | 32.2 | 0.00 | 0.00 | 0.00 | 58 | 1007.5 |
| 20260502214523 | 33 | 306 | 19.3 | 43.5 | 0.00 | 0.00 | 0.00 | 57 | 1007.3 |
| 20260502213024 | 34 | 315 | 24.1 | 37.0 | 0.00 | 0.00 | 0.00 | 55 | 1007.3 |
| 20260502211520 | 36 | 296 | 17.7 | 37.0 | 0.00 | 0.00 | 0.00 | 51 | 1007.3 |
| 20260502210020 | 36 | 302 | 24.1 | 41.8 | 0.00 | 0.00 | 0.00 | 50 | 1007.5 |
| 20260502204519 | 36 | 303 | 25.7 | 41.8 | 0.00 | 0.00 | 0.00 | 47 | 1007.3 |
| 20260502203018 | 36 | 355 | 27.4 | 41.8 | 0.00 | 0.00 | 0.00 | 50 | 1007.1 |
| 20260502200016 | 36 | 319 | 19.3 | 32.2 | 0.00 | 0.00 | 0.00 | 54 | 1007.2 |
| 20260502194528 | 37 | 5 | 22.5 | 30.6 | 0.00 | 0.00 | 0.00 | 54 | 1007.3 |
| 20260502193012 | 36 | 31 | 17.7 | 30.6 | 0.00 | 0.00 | 0.00 | 56 | 1007.5 |
| 20260502191510 | 38 | 355 | 12.9 | 20.9 | 0.00 | 0.00 | 0.00 | 47 | 1007.3 |
| 20260502190006 | 38 | 316 | 8.0 | 22.5 | 0.00 | 0.00 | 0.00 | 46 | 1007.6 |
| 20260502184501 | 38 | 268 | 9.7 | 20.9 | 0.00 | 0.00 | 0.00 | 48 | 1007.8 |
| 20260502183058 | 37 | 310 | 14.5 | 24.1 | 0.00 | 0.00 | 0.00 | 50 | 1008.1 |
| 20260502181554 | 37 | 282 | 9.7 | 20.9 | 0.00 | 0.00 | 0.00 | 51 | 1008.3 |
| 20260502163044 | 35 | 161 | 8.0 | 16.1 | 0.00 | 0.00 | 0.00 | 57 | 1009.4 |
| 20260502161527 | 34 | 227 | 1.6 | 20.9 | 0.00 | 0.00 | 0.00 | 60 | 1009.4 |
| 20260502151525 | 32 | 142 | 17.7 | 29.0 | 0.00 | 0.00 | 0.00 | 68 | 1009.5 |
| 20260502123038 | 26 | 121 | 16.1 | 22.5 | 0.00 | 0.00 | 0.00 | 84 | 1008.8 |
| 20260502121526 | 26 | 96 | 11.3 | 22.5 | 0.00 | 0.00 | 0.00 | 84 | 1008.7 |
| 20260502114519 | 26 | 135 | 11.3 | 20.9 | 0.00 | 0.00 | 0.00 | 84 | 1008.5 |
| 20260502113016 | 26 | 149 | 12.9 | 25.7 | 0.00 | 0.00 | 0.00 | 84 | 1008.3 |
| 20260502111514 | 26 | 139 | 16.1 | 24.1 | 0.00 | 0.00 | 0.00 | 83 | 1008.1 |
| 20260502110019 | 26 | 117 | 14.5 | 27.4 | 0.00 | 0.00 | 0.00 | 84 | 1007.9 |
| 20260502104513 | 26 | 144 | 16.1 | 29.0 | 0.00 | 0.00 | 0.00 | 83 | 1007.8 |
| 20260502103013 | 26 | 145 | 14.5 | 25.7 | 0.00 | 0.00 | 0.00 | 83 | 1007.6 |
| 20260502101511 | 26 | 157 | 16.1 | 25.7 | 0.00 | 0.00 | 0.00 | 83 | 1007.5 |
| 20260502091506 | 26 | 142 | 17.7 | 33.8 | 0.00 | 0.00 | 0.00 | 82 | 1007.3 |
| 20260502070052 | 27 | 142 | 20.9 | 32.2 | 0.00 | 0.00 | 0.00 | 76 | 1008.0 |
| 20260502064646 | 27 | 142 | 17.7 | 27.4 | 0.00 | 0.00 | 0.00 | 75 | 1007.9 |
| 20260502063043 | 28 | 130 | 12.9 | 24.1 | 0.00 | 0.00 | 0.00 | 75 | 1007.8 |
| 20260502061541 | 28 | 139 | 14.5 | 27.4 | 0.00 | 0.00 | 0.00 | 74 | 1008.0 |
| 20260502060037 | 28 | 140 | 12.9 | 25.7 | 0.00 | 0.00 | 0.00 | 74 | 1008.1 |
| 20260502054536 | 28 | 137 | 19.3 | 29.0 | 0.00 | 0.00 | 0.00 | 73 | 1008.0 |
| 20260502053037 | 28 | 147 | 16.1 | 37.0 | 0.00 | 0.00 | 0.00 | 72 | 1008.0 |
| 20260502051535 | 29 | 136 | 27.4 | 37.0 | 0.00 | 0.00 | 0.00 | 72 | 1007.9 |
| 20260502050034 | 29 | 135 | 25.7 | 37.0 | 0.00 | 0.00 | 0.00 | 71 | 1007.8 |
| 20260502044533 | 30 | 126 | 22.5 | 37.0 | 0.00 | 0.00 | 0.00 | 70 | 1007.9 |
| 20260502043033 | 30 | 134 | 24.1 | 38.6 | 0.00 | 0.00 | 0.00 | 69 | 1007.7 |
| 20260502041533 | 30 | 140 | 22.5 | 33.8 | 0.00 | 0.00 | 0.00 | 68 | 1007.7 |
| 20260502040037 | 31 | 151 | 17.7 | 30.6 | 0.00 | 0.00 | 0.00 | 67 | 1007.6 |
| 20260502034530 | 31 | 142 | 25.7 | 37.0 | 0.00 | 0.00 | 0.00 | 66 | 1007.3 |
| 20260502033032 | 31 | 163 | 22.5 | 35.4 | 0.00 | 0.00 | 0.00 | 65 | 1007.2 |
| 20260502031531 | 32 | 136 | 16.1 | 29.0 | 0.00 | 0.00 | 0.00 | 64 | 1006.9 |
| 20260502030028 | 32 | 152 | 16.1 | 35.4 | 0.00 | 0.00 | 0.00 | 63 | 1006.5 |
| 20260502024528 | 32 | 66 | 27.4 | 38.6 | 0.00 | 0.00 | 0.00 | 62 | 1006.4 |
| 20260502023027 | 33 | 145 | 19.3 | 30.6 | 0.00 | 0.00 | 0.00 | 60 | 1006.0 |
| 20260502021526 | 33 | 156 | 16.1 | 32.2 | 0.00 | 0.00 | 0.00 | 56 | 1005.5 |
| 20260502020026 | 34 | 135 | 20.9 | 35.4 | 0.00 | 0.00 | 0.00 | 54 | 1005.2 |
| 20260502014531 | 35 | 166 | 11.3 | 25.7 | 0.00 | 0.00 | 0.00 | 50 | 1004.9 |
| 20260502013124 | 35 | 153 | 11.3 | 24.1 | 0.00 | 0.00 | 0.00 | 48 | 1004.7 |
| 20260502011529 | 35 | 145 | 12.9 | 20.9 | 0.00 | 0.00 | 0.00 | 46 | 1004.3 |
| 20260502010023 | 35 | 152 | 12.9 | 24.1 | 0.00 | 0.00 | 0.00 | 45 | 1004.1 |
| 20260502004523 | 36 | 144 | 14.5 | 24.1 | 0.00 | 0.00 | 0.00 | 44 | 1003.9 |
| 20260502003022 | 36 | 132 | 16.1 | 25.7 | 0.00 | 0.00 | 0.00 | 43 | 1003.7 |
| 20260502001522 | 36 | 140 | 17.7 | 27.4 | 0.00 | 0.00 | 0.00 | 43 | 1003.7 |
| 20260502000021 | 37 | 167 | 16.1 | 24.1 | 0.00 | 0.00 | 0.00 | 42 | 1003.4 |
| 20260501234520 | 37 | 144 | 16.1 | 20.9 | 0.00 | 0.00 | 0.00 | 41 | 1003.5 |